Location: Bukit Setapoh
(2.2500°N, 113.8000°E)
Time: 22:10:41
(UTC+00:00)

DMSP B5D2-2 - Pass Details

Date: 25 July 2021
Orbit: 790 x 805 km, 98.3° (Epoch: 18 September)

Event Time Altitude Azimuth Distance (km) Brightness Sun altitude
Rises 11:00:01 0° 15° (NNE) 3,274 7.3 -6.0°
Reaches altitude 10° 11:02:21 10° 18° (NNE) 2,348 6.6 -6.5°
Maximum altitude 11:07:31 73° 102° (ESE) 827 4.0 -7.7°
Drops below altitude 10° 11:12:44 10° 187° (S) 2,364 6.4 -9.0°
Sets 11:15:04 0° 188° (S) 3,298 7.2 -9.5°
